Location: Bishop�s Knoyle
(51.0728°N, 2.1714°W)
Time: 22:46:18
(UTC+00:00)

CENTAUR R/B - Pass Details

Date: 22 January 2021
Orbit: 742 x 1446 km, 63.5° (Epoch: 07 March)

Event Time Altitude Azimuth Distance (km) Brightness Sun altitude
Rises 05:40:03 0° 168° (SSE) 3,388 5.6 -21.4°
Reaches altitude 10° 05:43:03 10° 151° (SSE) 2,556 5.1 -20.9°
Maximum altitude 05:47:09 19° 107° (ESE) 2,106 5.2 -20.3°
Drops below altitude 10° 05:51:40 10° 64° (ENE) 2,890 5.8 -19.6°
Sets 05:55:19 0° 49° (NE) 3,992 6.3 -19.0°
